Vertical_Velocity
-1 0 -0 0 -0 0 -0 1 0 1 -0 -1 -1 -2 -0 1 -1 0 -1 -1 -0 -1 -1 -0 -2 -0 -1 -0 0 -3 4 -1 1 1 0 -1 -1 -1 0 -1 -1 1 -0 -1 -1
0 -1 -1 -1 -0 0 0 -0 1 2 -1 -0 -0 -2 -1 -0 0 0 0 -0 -0 0 -2 1 1 3 -5 3 -1 -5 -3 -1 1 1 -1 0 -1 -0 -0 -1 -1 -2 -1 -1 -0
-1 -1 -1 -2 -1 -0 -1 1 -0 -0 -0 -1 0 -1 -2 -0 -1 -1 1 -1 -1 1 -0 -2 0 -1 1 3 16 -4 -1 0 1 0 -1 1 -0 -2 -0 -1 -2 -0 -2 -4 -2
-0 -1 -1 -1 -2 -2 -1 1 0 0 -0 0 -1 -1 -2 -0 -2 -1 -1 0 -2 -1 -1 -4 -3 -2 11 -2 -2 -3 -2 -1 -0 0 -1 -1 -2 0 1 0 -0 -2 -0 2 -1
-1 -0 -1 -1 -1 -2 -2 -1 0 0 0 1 -0 0 -1 -1 -1 -2 -0 0 -1 -1 -2 -3 -8 16 -0 -4 2 -1 0 -1 -0 -0 -1 -1 -0 -1 -2 0 -1 0 -1 0 0
-0 -1 -2 -2 -1 -1 -1 -2 1 -0 1 0 0 1 -1 -1 -2 -0 -1 0 1 -1 -1 -2 -3 -2 -5 -6 18 -4 -3 -1 -2 -1 -1 -1 0 0 -0 -1 0 -0 1 -0 2
-0 -0 -0 -2 -2 -2 -1 -2 1 -1 -0 1 1 0 -1 1 -1 -1 -0 1 0 0 -0 -1 -2 -5 -6 -4 -1 -4 -4 -4 -2 -2 -1 -1 -0 -2 -0 -1 -1 1 1 -3 -1
-2 -1 -1 -2 -2 -1 -2 -2 -0 0 -1 -0 0 0 -3 1 2 -1 -0 0 -0 -0 -0 0 -2 -4 -3 -13 -6 -6 5 -7 -5 -4 -1 -1 -6 0 0 -2 -2 0 -0 -1 -1
-1 -1 -1 -2 -1 -1 -2 -2 -0 -0 -1 -1 -0 0 -3 -2 1 -1 -0 0 1 -1 0 0 -2 -6 -2 -5 -7 24 4 15 -10 -4 -3 -8 4 -1 -1 -1 -1 -1 -2 -0 1
-1 0 -2 -2 -2 -2 -1 -2 -1 -1 -0 -0 -0 -0 0 -3 1 3 -1 3 2 2 -1 0 -1 -2 -3 -5 82 28 45 -5 61 -13 -3 -1 -4 -1 -1 -1 0 1 -1 -1 -0
-1 -0 -2 -1 -2 -1 -1 -1 -2 -1 -1 -0 1 -3 2 -1 -1 1 2 -1 1 1 -0 1 1 -3 3 15 -3 26 19 -8 -14 -7 -2 -4 -7 -3 -4 -1 -0 -1 -0 -1 -1
-0 -0 -2 -1 -2 -1 -2 -1 -1 -1 -2 -1 -1 -1 2 0 -0 -0 3 0 -1 2 2 1 -1 -2 11 -11 0 -1 -9 9 -10 -5 -5 -7 -7 -8 -5 -4 -1 -0 -3 -3 -1
-1 -2 -1 -1 -1 -1 -1 -1 -1 -2 -1 -2 -2 0 -1 1 -0 -1 -0 3 1 2 -0 2 2 -3 -5 -1 -3 -5 4 -5 9 -11 -5 13 6 11 5 -5 -4 -3 -2 -3 -1
-0 0 -1 -1 -2 -1 -0 -1 -1 -2 -2 -3 -2 -3 1 -1 -1 -2 3 2 0 0 2 2 4 -7 -1 0 -1 16 8 -7 -2 -2 27 14 -56 -22 11 -9 -8 -5 -2 0 -2
-2 -1 -0 -0 -1 -1 -1 -2 -2 -1 3 -9 1 4 -0 2 -6 3 0 1 2 1 -1 1 0 0 -2 2 -0 16 -2 1 -5 -8 9 29 -1 63 7 7 -10 -6 -5 -2 -1
-2 -3 -2 -0 -2 0 -1 -1 -1 0 6 -1 -3 -1 0 0 2 -0 1 -1 2 -3 -2 -0 10 -1 3 2 1 -3 -2 -2 -1 -4 -8 -17 4 -59 59 11 2 -5 -5 -1 -1
-1 -2 -1 -1 -1 -1 -1 -1 -1 2 -2 -5 -3 -3 0 0 -1 2 0 0 -1 2 -2 7 -6 4 -3 -3 -3 -3 2 -1 -7 -9 -18 27 1 -5 -42 29 -2 -3 -5 -1 -2
-0 -1 -0 -0 -0 -1 -1 -2 -1 0 2 -3 1 -1 -2 -1 3 1 -2 -0 -1 -2 2 -2 -3 -0 -4 -4 3 -1 1 -1 -6 9 5 29 -12 23 -46 21 -1 6 -10 -2 1
0 -1 -1 -0 -0 -1 -1 -1 3 1 -5 2 -3 0 0 2 1 -0 0 1 0 -0 -2 8 -6 9 -1 -3 1 -3 -12 -8 5 13 1 -47 26 -13 -23 7 4 -5 -2 -1 0
-2 -2 1 -1 -1 -1 -2 4 1 2 2 -0 0 -2 2 2 -2 2 1 2 3 -1 -0 6 -5 1 2 1 -6 -6 14 -2 -19 -4 6 2 -27 33 -19 -1 -10 15 -5 -4 -0
-2 -4 16 1 -0 -2 2 2 -5 -0 -0 -1 2 -1 -2 15 0 3 3 4 -1 -2 -0 1 -1 4 1 -5 3 -3 -10 -10 5 -9 -21 -12 9 17 14 -18 -9 -4 -1 -3 -1
1 -6 34 -1 -1 1 2 -1 3 -0 0 1 -2 3 -8 5 1 -0 -1 1 -4 3 -4 -2 1 -0 -4 -2 1 -2 -2 -3 5 -19 10 24 43 -31 22 11 -7 3 -6 -9 -3
0 -1 4 4 3 0 6 -2 0 1 2 1 3 -1 -0 -4 5 2 4 19 -5 0 0 1 -4 -4 3 -0 -4 -5 -3 6 -6 5 -5 3 -18 20 19 14 -6 -2 -3 -4 -4
-2 -2 4 2 4 7 2 2 8 -2 2 0 2 -1 -4 1 -2 4 7 -8 -1 1 -4 -1 1 4 21 11 9 -10 -1 -2 7 17 -12 -12 -1 52 3 -12 20 -2 -7 -2 0
2 -0 2 0 -4 6 4 12 6 10 8 -3 5 1 5 3 3 -4 10 6 -4 -5 0 -4 -0 -1 0 11 -11 13 -4 -3 -2 -6 20 16 7 -9 9 10 22 14 -8 -3 1
-8 -5 5 0 3 -2 -2 6 1 5 6 7 12 4 2 7 14 13 12 22 -7 -8 -4 -3 -6 -3 16 6 -6 -4 9 -2 -4 -2 -10 -16 -2 9 18 7 -3 -9 -9 0 0
-4 -3 -2 -2 -4 0 3 -1 -1 -5 12 27 5 -10 9 -5 -20 -10 -9 -8 -9 29 -8 -6 -2 9 -7 3 -1 -1 -8 3 18 5 -4 -2 -14 -11 16 15 -3 0 0 -2 3
Height
5929 5929 5929 5929 5929 5930 5930 5930 5931 5931 5930 5930 5930 5930 5929 5927 5926 5925 5924 5922 5921 5920 5919 5918 5916 5917 5917 5918 5919 5920 5926 5920 5918 5918 5918 5917 5916 5916 5916 5914 5911 5910 5909 5908 5907
5927 5927 5927 5927 5928 5927 5927 5928 5929 5930 5929 5929 5929 5929 5929 5928 5927 5927 5926 5924 5923 5922 5921 5921 5919 5919 5918 5921 5923 5925 5924 5920 5920 5919 5920 5919 5918 5919 5920 5917 5915 5913 5914 5914 5913
5925 5924 5925 5925 5926 5926 5926 5926 5927 5927 5928 5927 5928 5928 5928 5928 5928 5927 5927 5926 5924 5924 5924 5922 5922 5922 5927 5929 5928 5924 5922 5921 5921 5921 5920 5921 5920 5921 5921 5920 5919 5918 5917 5918 5917
5922 5922 5922 5923 5923 5923 5924 5924 5924 5925 5926 5926 5926 5926 5927 5927 5928 5927 5927 5927 5926 5925 5925 5924 5924 5931 5933 5930 5927 5925 5923 5922 5923 5922 5922 5922 5922 5923 5924 5923 5923 5921 5920 5920 5920
5918 5918 5918 5919 5920 5920 5921 5921 5922 5922 5923 5924 5924 5925 5925 5926 5926 5926 5927 5928 5927 5927 5926 5926 5928 5934 5937 5932 5933 5928 5925 5925 5925 5924 5924 5923 5923 5924 5925 5925 5925 5924 5923 5922 5922
5915 5914 5915 5915 5915 5916 5916 5917 5918 5918 5919 5921 5922 5922 5923 5924 5925 5925 5927 5927 5928 5927 5927 5927 5929 5931 5934 5932 5928 5930 5927 5926 5926 5926 5926 5926 5926 5925 5926 5926 5926 5925 5925 5924 5924
5911 5911 5911 5911 5911 5912 5912 5913 5913 5914 5915 5917 5918 5919 5919 5922 5923 5924 5925 5927 5927 5928 5928 5928 5928 5930 5934 5932 5931 5929 5928 5927 5927 5927 5928 5927 5928 5927 5927 5928 5927 5926 5926 5925 5925
5908 5907 5907 5907 5907 5907 5907 5908 5908 5909 5910 5912 5913 5915 5915 5917 5919 5921 5923 5925 5926 5927 5928 5928 5929 5930 5932 5933 5930 5929 5928 5928 5929 5928 5928 5930 5929 5930 5929 5929 5928 5927 5927 5927 5926
5903 5903 5903 5902 5903 5903 5903 5903 5903 5904 5905 5907 5908 5909 5911 5912 5914 5916 5919 5922 5924 5926 5927 5928 5928 5930 5931 5931 5932 5932 5916 5932 5931 5931 5930 5931 5935 5932 5931 5930 5929 5928 5928 5928 5928
5898 5898 5898 5898 5898 5898 5898 5898 5898 5899 5899 5900 5902 5905 5905 5907 5909 5911 5914 5919 5922 5924 5925 5927 5928 5930 5933 5937 5920 5935 5939 5935 5929 5934 5932 5932 5934 5934 5932 5932 5931 5930 5930 5929 5928
5894 5894 5893 5893 5893 5893 5893 5894 5894 5894 5894 5895 5897 5897 5899 5901 5904 5905 5909 5914 5917 5920 5923 5925 5927 5931 5939 5940 5932 5938 5938 5938 5936 5934 5933 5932 5933 5934 5933 5933 5931 5931 5930 5930 5929
5889 5889 5889 5889 5888 5888 5889 5889 5888 5889 5889 5889 5890 5892 5894 5895 5898 5900 5904 5909 5913 5917 5919 5923 5925 5932 5937 5932 5933 5934 5938 5939 5936 5933 5933 5934 5934 5934 5933 5933 5932 5932 5932 5932 5930
5886 5885 5885 5885 5885 5885 5884 5885 5884 5884 5884 5884 5885 5886 5889 5890 5892 5895 5899 5904 5908 5912 5915 5920 5925 5928 5929 5929 5931 5934 5939 5933 5937 5932 5931 5932 5934 5935 5933 5932 5932 5932 5932 5932 5931
5884 5883 5883 5883 5884 5882 5882 5882 5881 5880 5880 5880 5881 5882 5884 5885 5887 5890 5894 5899 5902 5907 5911 5915 5920 5922 5924 5926 5930 5937 5935 5933 5933 5932 5932 5933 5928 5925 5933 5930 5931 5931 5932 5931 5931
5881 5881 5881 5880 5880 5880 5880 5880 5879 5879 5881 5877 5877 5879 5879 5882 5883 5886 5889 5892 5897 5902 5905 5912 5913 5917 5918 5924 5927 5933 5928 5930 5931 5931 5933 5935 5936 5930 5933 5929 5929 5930 5931 5931 5930
5877 5877 5877 5877 5877 5877 5877 5877 5877 5878 5877 5875 5874 5875 5876 5878 5880 5881 5885 5888 5893 5896 5900 5904 5910 5911 5915 5919 5922 5925 5927 5928 5930 5932 5935 5935 5935 5924 5929 5929 5927 5929 5931 5931 5930
5872 5872 5872 5872 5873 5873 5873 5873 5875 5875 5874 5873 5872 5872 5874 5876 5877 5879 5882 5885 5889 5893 5896 5900 5901 5906 5908 5911 5916 5919 5923 5929 5933 5935 5935 5930 5932 5930 5917 5931 5929 5926 5930 5931 5930
5866 5866 5866 5866 5867 5867 5868 5870 5871 5872 5871 5870 5871 5871 5871 5873 5876 5877 5878 5881 5884 5889 5896 5898 5900 5901 5902 5907 5914 5916 5921 5928 5932 5934 5935 5931 5929 5930 5907 5929 5928 5927 5928 5930 5930
5860 5860 5860 5860 5861 5861 5863 5863 5866 5866 5866 5867 5867 5869 5870 5873 5875 5874 5877 5880 5882 5885 5892 5898 5898 5900 5897 5902 5907 5913 5915 5923 5927 5927 5930 5921 5928 5929 5930 5930 5928 5926 5928 5929 5929
5850 5851 5852 5852 5853 5854 5855 5858 5858 5859 5861 5862 5864 5866 5870 5871 5871 5874 5875 5877 5881 5882 5885 5893 5892 5895 5894 5896 5899 5904 5916 5918 5920 5923 5924 5927 5928 5932 5928 5929 5928 5929 5924 5926 5928
5839 5839 5843 5843 5844 5845 5848 5850 5849 5851 5854 5857 5859 5862 5866 5873 5870 5873 5875 5877 5875 5877 5880 5885 5890 5892 5889 5890 5895 5899 5903 5908 5917 5921 5922 5925 5926 5928 5924 5923 5926 5925 5923 5924 5926
5827 5826 5831 5830 5833 5835 5837 5838 5840 5843 5846 5848 5852 5856 5857 5867 5868 5870 5873 5875 5872 5876 5876 5879 5886 5889 5888 5888 5889 5892 5898 5903 5909 5914 5917 5919 5925 5918 5922 5921 5921 5922 5919 5921 5925
5811 5812 5813 5816 5819 5821 5824 5825 5830 5833 5836 5840 5844 5848 5851 5855 5863 5867 5871 5872 5867 5870 5874 5877 5879 5885 5889 5889 5885 5886 5893 5899 5904 5910 5912 5915 5919 5920 5920 5918 5919 5919 5916 5918 5921
5797 5797 5798 5799 5802 5806 5807 5811 5819 5820 5824 5828 5834 5837 5842 5848 5852 5860 5866 5863 5863 5864 5866 5870 5876 5883 5888 5889 5887 5882 5885 5892 5899 5903 5908 5910 5914 5913 5913 5914 5917 5915 5911 5913 5917
5789 5789 5788 5788 5790 5793 5794 5798 5802 5806 5813 5816 5822 5828 5835 5840 5845 5851 5859 5861 5858 5859 5862 5865 5871 5878 5881 5883 5881 5882 5880 5884 5890 5896 5901 5906 5908 5910 5909 5909 5908 5906 5905 5908 5913
5782 5782 5782 5782 5781 5782 5783 5786 5787 5792 5797 5804 5811 5816 5823 5828 5837 5846 5851 5857 5855 5854 5857 5861 5866 5870 5874 5877 5875 5877 5881 5882 5885 5889 5892 5896 5898 5901 5901 5901 5900 5900 5900 5904 5909
5774 5773 5772 5774 5773 5773 5774 5775 5776 5779 5785 5793 5793 5798 5803 5811 5818 5823 5829 5836 5845 5850 5853 5858 5863 5868 5870 5872 5873 5874 5875 5880 5883 5885 5887 5889 5893 5897 5897 5894 5893 5894 5895 5900 5906